DW7793 Weather Reports


time (UTC)temp
F
wind
direction
speed
knots
gust
knots
rain 1hr
in
rain 24hr
in
rain mn
in
humidity
%
barometer
mb
20260906051500 78 209 0.0 1.7 0.00 0.00 0.00 86 1013.0
20260906050131 79 119 0.0 0.9 0.00 0.00 0.00 83 1012.8
20260906044507 81 157 0.0 0.9 0.00 0.00 0.00 77 1012.6
20260906043008 81 347 0.0 0.0 0.00 0.00 0.00 78 1012.7
20260906041517 81 186 0.0 0.0 0.00 0.00 0.00 80 1012.7
20260906040014 80 34 0.0 0.0 0.00 0.00 0.00 82 1012.1
20260906034514 80 34 0.0 0.0 0.00 0.00 0.00 81 1012.1
20260906033027 80 34 0.0 0.0 0.00 0.00 0.00 81 1012.3
20260906031544 80 34 0.0 0.0 0.00 0.00 0.00 80 1012.0
20260906030038 80 221 0.0 0.0 0.00 0.00 0.00 79 1011.9
20260906024545 80 221 0.0 0.0 0.00 0.00 0.00 80 1011.8
20260906023041 80 115 0.0 0.0 0.00 0.00 0.00 80 1011.4
20260906021555 81 341 0.0 0.0 0.00 0.00 0.00 79 1011.2
20260906020043 82 341 0.0 0.0 0.00 0.00 0.00 76 1010.6
20260906014538 82 219 0.0 0.0 0.00 0.00 0.00 75 1010.8
20260906013036 83 77 0.0 0.0 0.00 0.00 0.00 73 1010.8
20260906011540 84 185 0.0 0.0 0.00 0.00 0.00 71 1011.0
20260906010039 85 73 0.0 4.3 0.00 0.00 0.00 69 1011.4
20260906004543 88 8 0.0 0.0 0.00 0.00 0.00 70 1011.4
20260906003047 89 142 0.0 0.0 0.00 0.00 0.00 68 1010.9
20260906001542 91 343 0.0 0.0 0.00 0.00 0.00 63 1010.7
20260906000051 93 343 0.0 0.0 0.00 0.00 0.00 60 1010.4
20260905234612 94 300 0.0 0.0 0.00 0.00 0.00 58 1010.2
20260905233005 95 319 0.0 0.0 0.00 0.00 0.00 55 1010.4
20260905231503 95 226 0.0 0.0 0.00 0.00 0.00 56 1010.3
20260905230002 95 345 0.0 0.0 0.00 0.00 0.00 56 1010.3
20260905224609 96 10 0.0 0.0 0.00 0.00 0.00 53 1010.3
20260905223058 96 129 0.0 0.0 0.00 0.00 0.00 55 1010.3
20260905221507 98 351 0.0 0.0 0.00 0.00 0.00 51 1010.3
20260905220002 99 20 0.0 0.0 0.00 0.00 0.00 48 1010.3
20260905214511 100 49 0.0 0.0 0.00 0.00 0.00 48 1010.4
20260905213009 99 83 0.0 0.0 0.00 0.00 0.00 49 1010.5
20260905211516 98 96 0.0 0.0 0.00 0.00 0.00 50 1010.5
20260905210018 99 218 0.0 0.0 0.00 0.00 0.00 49 1010.7
20260905204514 100 46 0.0 0.0 0.00 0.00 0.00 50 1010.9
20260905203105 99 257 0.0 0.0 0.00 0.00 0.00 49 1011.0
20260905201555 100 277 0.0 0.0 0.00 0.00 0.00 52 1011.3
20260905200059 99 203 0.0 0.0 0.00 0.00 0.00 51 1011.5
20260905194559 100 185 0.0 0.0 0.00 0.00 0.00 51 1011.8
20260905193002 98 321 0.0 0.0 0.00 0.00 0.00 52 1011.9
20260905191510 99 7 0.0 0.0 0.00 0.00 0.00 51 1011.9
20260905190103 98 255 0.0 0.0 0.00 0.00 0.00 56 1012.3
20260905184514 97 63 0.0 0.0 0.00 0.00 0.00 54 1012.6
20260905183005 99 68 0.0 0.0 0.00 0.00 0.00 52 1012.8
20260905181510 98 236 0.0 0.0 0.00 0.00 0.00 54 1013.1
20260905180006 98 21 0.0 0.0 0.00 0.00 0.00 53 1013.5
20260905174557 98 17 0.0 0.0 0.00 0.00 0.00 53 1013.5
20260905173053 96 103 0.0 0.0 0.00 0.00 0.00 58 1013.6
20260905171548 95 269 0.0 0.0 0.00 0.00 0.00 60 1013.5
20260905170049 94 266 0.0 0.0 0.00 0.00 0.00 61 1013.7
20260905164516 95 186 0.0 0.0 0.00 0.00 0.00 62 1013.9
20260905163104 94 284 0.0 0.0 0.00 0.00 0.00 64 1014.0
20260905161553 93 187 0.0 0.0 0.00 0.00 0.00 65 1014.3
20260905160058 91 24 0.0 0.0 0.00 0.00 0.00 68 1014.4
20260905154604 88 321 0.0 0.0 0.00 0.00 0.00 72 1014.5
20260905153055 86 290 0.0 0.0 0.00 0.00 0.00 78 1014.6
20260905151556 86 360 0.0 0.0 0.00 0.00 0.00 78 1014.7
20260905150003 85 330 0.0 0.0 0.00 0.00 0.00 82 1014.7
20260905144557 83 186 0.0 0.0 0.00 0.00 0.00 85 1014.7
20260905143013 82 186 0.0 0.0 0.00 0.00 0.00 88 1014.8
20260905141614 80 186 0.0 0.0 0.00 0.00 0.00 90 1014.7
20260905140009 79 186 0.0 0.0 0.00 0.00 0.00 93 1014.7
20260905134607 79 185 0.0 0.0 0.00 0.00 0.00 94 1014.8
20260905133001 78 219 0.0 0.0 0.00 0.00 0.00 94 1014.8
20260905131606 77 200 0.0 0.0 0.00 0.00 0.00 96 1014.8
20260905130005 76 200 0.0 0.0 0.00 0.00 0.00 96 1014.8
20260905124501 75 186 0.0 0.0 0.00 0.00 0.00 97 1014.9
20260905123006 75 186 0.0 0.0 0.00 0.00 0.00 97 1014.8
20260905121508 74 186 0.0 0.0 0.00 0.00 0.00 97 1014.7
20260905120100 74 186 0.0 0.0 0.00 0.00 0.00 97 1014.6
20260905114627 74 186 0.0 0.0 0.00 0.00 0.00 98 1014.4
20260905113001 73 186 0.0 0.0 0.00 0.00 0.00 98 1014.2
20260905111602 73 186 0.0 0.0 0.00 0.00 0.00 98 1014.0
20260905110101 73 186 0.0 0.0 0.00 0.00 0.00 98 1013.7
20260905104559 73 186 0.0 0.0 0.00 0.00 0.00 98 1013.7
20260905103055 73 186 0.0 0.0 0.00 0.00 0.00 98 1013.5
20260905101553 73 187 0.0 0.0 0.00 0.00 0.00 97 1013.5
20260905100112 74 186 0.0 0.0 0.00 0.00 0.00 97 1013.3
20260905094607 74 186 0.0 0.0 0.00 0.00 0.00 97 1013.3
20260905093049 74 187 0.0 0.0 0.00 0.00 0.00 97 1013.2
20260905091600 74 187 0.0 0.0 0.00 0.00 0.00 97 1013.4
20260905090052 74 186 0.0 0.0 0.00 0.00 0.00 96 1013.3
20260905084557 74 187 0.0 0.0 0.00 0.00 0.00 96 1013.3
20260905083100 75 186 0.0 0.0 0.00 0.00 0.00 95 1013.5
20260905081603 75 186 0.0 0.0 0.00 0.00 0.00 95 1013.5
20260905080058 75 186 0.0 0.0 0.00 0.00 0.00 94 1013.6
20260905074558 75 186 0.0 0.0 0.00 0.00 0.00 94 1013.6
20260905073102 76 186 0.0 0.0 0.00 0.00 0.00 94 1013.9
20260905071557 76 186 0.0 0.0 0.00 0.00 0.00 93 1013.7
20260905064614 76 186 0.0 0.0 0.00 0.00 0.00 93 1013.7
20260905063103 76 212 0.0 0.0 0.00 0.00 0.00 93 1013.7
20260905061510 77 212 0.0 0.0 0.00 0.00 0.00 92 1013.6
20260905060011 77 212 0.0 0.0 0.00 0.00 0.00 92 1013.5
20260905054501 78 212 0.0 0.0 0.00 0.00 0.00 91 1013.5
20260905053058 78 210 0.0 0.0 0.00 0.00 0.00 90 1013.5